Veracruz Airport, Mexico

8:14 PM CST on March 23, 2017 (GMT -0600)
Gen Heriberto Jara International

Weather History for MMVR - October, 2012

Change the Weather History Date:

Tuesday, October 9, 2012

  Actual Average Record
Temperature  
Mean Temperature 78 °F -  
Max Temperature 86 °F 84 °F 96 °F (1999)
Min Temperature 71 °F 70 °F 64 °F (2000)
Cooling Degree Days 14    
Growing Degree Days 28 (Base 50)    
Moisture  
Dew Point 72 °F    
Average Humidity 79    
Maximum Humidity 94    
Minimum Humidity 62    
Precipitation  
Precipitation 0.00 in - - ()
Sea Level Pressure  
Sea Level Pressure 29.96 in    
Wind  
Wind Speed 4 mph ()    
Max Wind Speed 12 mph    
Max Gust Speed -    
Visibility 7.0 miles    
Events      
Averages and records for this station are not official NWS values.
T = Trace of Precipitation, MM = Missing Value Source: Averaged Metar Reports

Daily Weather History Graph

Daily Weather History Graph

Search for Another Location

Airport or City:

Trip Planner

Search our weather history database for the weather conditions in past years. The results will help you decide how hot, cold, wet, or windy it might be!

Date:

Astronomy

Oct. 09, 2012 Rise Set
Actual Time 7:17 AM CDT 7:05 PM CDT
Civil Twilight 6:55 AM CDT 7:27 PM CDT
Nautical Twilight 6:29 AM CDT 7:53 PM CDT
Astronomical Twilight 6:04 AM CDT 8:18 PM CDT
Moon 1:42 AM CDT (10/9) 2:50 PM CDT (10/9)
Length of Visible Light 12h 32m
Length of Day
11h 48m
Last Quarter, 36% of the Moon is Illuminated
Oct 9
Last Quarter
Oct 15
New
Oct 21
First Quarter
Oct 29
Full
Nov 6
Last Quarter

Hourly Weather History & Observations

Time (CDT) Temp. Heat Index Dew Point Humidity Pressure Visibility Wind Dir Wind Speed Gust Speed Precip Events Conditions
5:13 AM 71.6 °F - 69.8 °F 94% 29.97 in 7.0 mi North 4.6 mph - N/A   Overcast
5:42 AM 71.6 °F - 69.8 °F 94% 29.98 in 7.0 mi NW 3.5 mph - N/A   Overcast
6:44 AM 71.6 °F - 69.8 °F 94% 29.96 in 7.0 mi Calm Calm - N/A   Scattered Clouds
7:40 AM 71.6 °F - 69.8 °F 94% 29.99 in 7.0 mi West 4.6 mph - N/A   Mostly Cloudy
8:40 AM 73.4 °F - 71.6 °F 94% 30.00 in 7.0 mi West 3.5 mph - N/A   Mostly Cloudy
9:45 AM 78.8 °F - 73.4 °F 83% 29.99 in 7.0 mi Calm Calm - N/A   Mostly Cloudy
10:42 AM 82.4 °F 87.2 °F 71.6 °F 70% 30.01 in 7.0 mi SW 2.3 mph - N/A   Mostly Cloudy
11:42 AM 84.2 °F 88.4 °F 69.8 °F 62% 29.99 in 7.0 mi East 4.6 mph - N/A   Mostly Cloudy
12:41 PM 86.0 °F 91.8 °F 71.6 °F 62% 29.96 in 7.0 mi ENE 4.6 mph - N/A   Mostly Cloudy
1:41 PM 86.0 °F 91.8 °F 71.6 °F 62% 29.94 in 7.0 mi NE 4.6 mph - N/A   Mostly Cloudy
2:40 PM 84.2 °F 89.6 °F 71.6 °F 66% 29.92 in 7.0 mi NNE 9.2 mph - N/A   Mostly Cloudy
3:41 PM 84.2 °F 89.6 °F 71.6 °F 66% 29.91 in 7.0 mi NNE 11.5 mph - N/A   Mostly Cloudy
4:48 PM 82.4 °F 87.2 °F 71.6 °F 70% 29.90 in 7.0 mi NNE 8.1 mph - N/A   Mostly Cloudy
5:41 PM 82.4 °F 88.2 °F 73.4 °F 74% 29.90 in 7.0 mi NNE 10.4 mph - N/A   Mostly Cloudy
6:43 PM 80.6 °F 85.4 °F 73.4 °F 79% 29.92 in 7.0 mi NNE 10.4 mph - N/A   Mostly Cloudy
7:40 PM 78.8 °F - 73.4 °F 83% 29.94 in 7.0 mi NNE 6.9 mph - N/A   Mostly Cloudy
8:43 PM 78.8 °F - 73.4 °F 83% 29.95 in 7.0 mi NNE 10.4 mph - N/A   Scattered Clouds
9:47 PM 78.8 °F - 73.4 °F 83% 29.98 in 7.0 mi North 3.5 mph - N/A   Scattered Clouds
10:42 PM 78.8 °F - 73.4 °F 83% 29.98 in 7.0 mi NNW 3.5 mph - N/A   Overcast